Вернуться в каталог

FENGYUN 1C DEB

АктивенSSO
NORAD 30942·DEBRIS·🇨🇳 China

Запущен May 10, 1999 с Taiyuan Satellite Launch Center

Loading…

Ближайшие Пролёты (ближайшие 24 часа)

TLE

СвежийSource: Space-Track

Эпоха: Sep 11, 2026, 10:57 UTC

1 30942U 99025BAG 26254.45634541  .00000279  00000-0  15100-3 0  9992
2 30942  98.6925 250.5817 0137564  46.7022 106.3610 14.15092973  4567

Отслеживайте FENGYUN 1C DEB в реальном времени с AllMySat

Download on the App Store